ProjectID,Date,Electric Generation,Electric Utility Import,Facility Electric Load
,YYYY-MM-DD,kW,kW,kW
134,2013-09-25,97.41666666666667,,97.41666666666667
134,2013-09-26,101.04166666666667,,101.04166666666667
134,2013-09-27,71.625,,71.625
134,2013-09-28,86.41666666666667,,86.41666666666667
134,2013-09-29,85.54166666666667,,85.54166666666667
134,2013-09-30,92.875,,92.875
134,2013-10-01,89.25,,89.25
134,2013-10-02,85.95833333333333,,85.95833333333333
134,2013-10-03,77.66666666666667,,77.66666666666667
134,2013-10-04,48.666666666666664,,48.666666666666664
134,2013-10-05,51.291666666666664,,51.291666666666664
134,2013-10-06,5.333333333333333,,5.333333333333333
134,2013-10-07,25.791666666666668,,25.791666666666668
134,2013-10-08,90.91666666666667,,90.91666666666667
134,2013-10-09,75.25,,75.25
134,2013-10-10,22.875,,22.875
134,2013-10-11,56.0,,56.0
134,2013-10-12,86.0,,86.0
134,2013-10-13,83.75,,83.75
134,2013-10-14,73.58333333333333,,73.58333333333333
134,2013-10-15,60.0,,60.0
134,2013-10-16,18.333333333333332,,18.333333333333332
134,2013-10-17,67.04166666666667,,67.04166666666667
134,2013-10-18,79.29166666666667,,79.29166666666667
134,2013-10-19,52.75,,52.75
134,2013-10-20,81.875,,81.875
134,2013-10-21,79.58333333333333,,79.58333333333333
134,2013-10-22,30.083333333333332,,30.083333333333332
134,2013-10-23,42.416666666666664,,42.416666666666664
134,2013-10-24,72.45833333333333,,72.45833333333333
134,2013-10-25,34.875,,34.875
134,2013-10-26,67.625,,67.625
134,2013-10-27,58.041666666666664,,58.041666666666664
134,2013-10-28,64.70833333333333,,64.70833333333333
134,2013-10-29,73.66666666666667,,73.66666666666667
134,2013-10-30,57.875,,57.875
134,2013-10-31,4.875,,4.875
134,2013-11-01,35.916666666666664,,35.916666666666664
134,2013-11-02,46.541666666666664,,46.541666666666664
134,2013-11-03,40.875,,40.875
134,2013-11-04,75.625,,75.625
134,2013-11-05,62.458333333333336,,62.458333333333336
134,2013-11-06,26.375,,26.375
134,2013-11-07,8.25,,8.25
134,2013-11-08,47.083333333333336,,47.083333333333336
134,2013-11-09,20.666666666666668,,20.666666666666668
134,2013-11-10,15.625,,15.625
134,2013-11-11,36.833333333333336,,36.833333333333336
134,2013-11-12,30.708333333333332,,30.708333333333332
134,2013-11-13,68.79166666666667,,68.79166666666667
134,2013-11-14,63.625,,63.625
134,2013-11-15,59.208333333333336,,59.208333333333336
134,2013-11-16,61.0,,61.0
134,2013-11-17,5.0,,5.0
134,2013-11-18,61.541666666666664,,61.541666666666664
134,2013-11-19,38.916666666666664,,38.916666666666664
134,2013-11-20,60.333333333333336,,60.333333333333336
134,2013-11-21,42.375,,42.375
134,2013-11-22,26.375,,26.375
134,2013-11-23,61.041666666666664,,61.041666666666664
134,2013-11-24,62.958333333333336,,62.958333333333336
134,2013-11-25,61.208333333333336,,61.208333333333336
134,2013-11-26,9.666666666666666,,9.666666666666666
134,2013-11-27,3.0833333333333335,,3.0833333333333335
134,2013-11-28,51.291666666666664,,51.291666666666664
134,2013-11-29,39.583333333333336,,39.583333333333336
134,2013-11-30,53.958333333333336,,53.958333333333336
134,2013-12-01,19.875,,19.875
134,2013-12-02,16.625,,16.625
134,2013-12-03,25.208333333333332,,25.208333333333332
134,2013-12-04,43.375,,43.375
134,2013-12-05,3.75,,3.75
134,2013-12-06,11.041666666666666,,11.041666666666666
134,2013-12-07,9.333333333333334,,9.333333333333334
134,2013-12-08,14.833333333333334,,14.833333333333334
134,2013-12-09,3.6666666666666665,,3.6666666666666665
134,2013-12-10,3.75,,3.75
134,2013-12-11,2.375,,2.375
134,2013-12-12,4.416666666666667,,4.416666666666667
134,2013-12-13,2.7916666666666665,,2.7916666666666665
134,2013-12-14,0.875,,0.875
134,2013-12-15,0.0,,0.0
134,2013-12-16,0.0,,0.0
134,2013-12-17,0.0,,0.0
134,2013-12-18,0.0,,0.0
134,2013-12-19,0.0,,0.0
134,2013-12-20,0.0,,0.0
134,2013-12-21,0.041666666666666664,,0.041666666666666664
134,2013-12-22,10.0,,10.0
134,2013-12-23,3.4166666666666665,,3.4166666666666665
134,2013-12-24,36.75,,36.75
134,2013-12-25,31.0,,31.0
134,2013-12-26,8.625,,8.625
134,2013-12-27,24.916666666666668,,24.916666666666668
134,2013-12-28,43.75,,43.75
134,2013-12-29,4.875,,4.875
134,2013-12-30,41.166666666666664,,41.166666666666664
134,2013-12-31,35.333333333333336,,35.333333333333336
134,2014-01-01,51.291666666666664,,51.291666666666664
134,2014-01-02,0.8333333333333334,,0.8333333333333334
134,2014-01-03,7.458333333333333,,7.458333333333333
134,2014-01-04,10.333333333333334,,10.333333333333334
134,2014-01-05,10.333333333333334,,10.333333333333334
134,2014-01-06,15.583333333333334,,15.583333333333334
134,2014-01-07,60.291666666666664,,60.291666666666664
134,2014-01-08,58.125,,58.125
134,2014-01-09,57.583333333333336,,57.583333333333336
134,2014-01-10,2.5416666666666665,,2.5416666666666665
134,2014-01-11,1.875,,1.875
134,2014-01-12,24.291666666666668,,24.291666666666668
134,2014-01-13,37.166666666666664,,37.166666666666664
134,2014-01-14,5.541666666666667,,5.541666666666667
134,2014-01-15,47.083333333333336,,47.083333333333336
134,2014-01-16,15.833333333333334,,15.833333333333334
134,2014-01-17,42.583333333333336,,42.583333333333336
134,2014-01-18,1.4583333333333333,,1.4583333333333333
134,2014-01-19,4.541666666666667,,4.541666666666667
134,2014-01-20,6.958333333333333,,6.958333333333333
134,2014-01-21,23.5,,23.5
134,2014-01-22,71.95833333333333,,71.95833333333333
134,2014-01-23,68.125,,68.125
134,2014-01-24,70.66666666666667,,70.66666666666667
134,2014-01-25,3.6666666666666665,,3.6666666666666665
134,2014-01-26,9.041666666666666,,9.041666666666666
134,2014-01-27,6.375,,6.375
134,2014-01-28,35.041666666666664,,35.041666666666664
134,2014-01-29,61.125,,61.125
134,2014-01-30,73.41666666666667,,73.41666666666667
134,2014-01-31,30.541666666666668,,30.541666666666668
134,2014-02-01,39.333333333333336,,39.333333333333336
134,2014-02-02,14.791666666666666,,14.791666666666666
134,2014-02-03,1.6666666666666667,,1.6666666666666667
134,2014-02-04,1.4583333333333333,,1.4583333333333333
134,2014-02-05,0.0,,0.0
134,2014-02-06,0.041666666666666664,,0.041666666666666664
134,2014-02-07,0.0,,0.0
134,2014-02-08,0.0,,0.0
134,2014-02-09,0.0,,0.0
134,2014-02-10,0.0,,0.0
134,2014-02-11,0.041666666666666664,,0.041666666666666664
134,2014-02-12,0.0,,0.0
134,2014-02-13,0.0,,0.0
134,2014-02-14,0.0,,0.0
134,2014-02-15,0.0,,0.0
134,2014-02-16,0.0,,0.0
134,2014-02-17,0.0,,0.0
134,2014-02-18,0.0,,0.0
134,2014-02-19,0.0,,0.0
134,2014-02-20,0.0,,0.0
134,2014-02-21,0.0,,0.0
134,2014-02-22,0.0,,0.0
134,2014-02-23,0.0,,0.0
134,2014-02-24,0.041666666666666664,,0.041666666666666664
134,2014-02-25,0.0,,0.0
134,2014-02-26,0.08333333333333333,,0.08333333333333333
134,2014-02-27,0.0,,0.0
134,2014-02-28,0.125,,0.125
134,2014-03-01,0.041666666666666664,,0.041666666666666664
134,2014-03-02,0.041666666666666664,,0.041666666666666664
134,2014-03-03,0.0,,0.0
134,2014-03-04,0.08333333333333333,,0.08333333333333333
134,2014-03-05,0.041666666666666664,,0.041666666666666664
134,2014-03-06,0.25,,0.25
134,2014-03-07,0.20833333333333334,,0.20833333333333334
134,2014-03-08,0.75,,0.75
134,2014-03-09,3.875,,3.875
134,2014-03-10,4.083333333333333,,4.083333333333333
134,2014-03-11,21.75,,21.75
134,2014-03-12,9.666666666666666,,9.666666666666666
134,2014-03-13,72.45575000000001,,72.45575000000001
134,2014-03-14,66.0,,66.0
134,2014-03-15,77.20833333333333,,77.20833333333333
134,2014-03-16,101.625,,101.625
134,2014-03-17,101.625,,101.625
134,2014-03-18,109.66666666666667,,109.66666666666667
134,2014-03-19,42.708333333333336,,42.708333333333336
134,2014-03-20,71.0,,71.0
134,2014-03-21,114.54166666666667,,114.54166666666667
134,2014-03-22,88.66666666666667,,88.66666666666667
134,2014-03-23,68.83333333333333,,68.83333333333333
134,2014-03-24,118.29166666666667,,118.29166666666667
134,2014-03-25,86.83333333333333,,86.83333333333333
134,2014-03-26,105.45833333333333,,105.45833333333333
134,2014-03-27,108.16666666666667,,108.16666666666667
134,2014-03-28,17.583333333333332,,17.583333333333332
134,2014-03-29,48.291666666666664,,48.291666666666664
134,2014-03-30,34.416666666666664,,34.416666666666664
134,2014-03-31,100.20833333333333,,100.20833333333333
134,2014-04-01,97.125,,97.125
134,2014-04-02,80.0,,80.0
134,2014-04-03,112.33333333333333,,112.33333333333333
134,2014-04-04,27.510166666666667,,27.510166666666667
134,2014-04-05,41.843041666666664,,41.843041666666664
134,2014-04-06,120.79166666666667,,120.79166666666667
134,2014-04-07,38.916666666666664,,38.916666666666664
134,2014-04-08,72.25,,72.25
134,2014-04-09,116.29166666666667,,116.29166666666667
134,2014-04-10,119.88333333333333,,119.88333333333333
134,2014-04-11,48.375,,48.375
134,2014-04-12,110.54166666666667,,110.54166666666667
134,2014-04-13,89.70833333333333,,89.70833333333333
134,2014-04-14,80.20833333333333,,80.20833333333333
134,2014-04-15,15.208333333333334,,15.208333333333334
134,2014-04-16,119.04858333333334,,119.04858333333334
134,2014-04-17,126.91666666666667,,126.91666666666667
134,2014-04-18,83.79166666666667,,83.79166666666667
134,2014-04-19,123.125,,123.125
134,2014-04-20,125.79166666666667,,125.79166666666667
134,2014-04-21,122.79166666666667,,122.79166666666667
134,2014-04-22,54.25,,54.25
134,2014-04-23,45.75,,45.75
134,2014-04-24,138.29166666666666,,138.29166666666666
134,2014-04-25,107.75,,107.75
134,2014-04-26,68.625,,68.625
134,2014-04-27,40.458333333333336,,40.458333333333336
134,2014-04-28,131.625,,131.625
134,2014-04-29,26.25,,26.25
134,2014-04-30,14.375,,14.375
134,2014-05-01,92.95833333333333,,92.95833333333333
134,2014-05-02,70.625,,70.625
134,2014-05-03,78.16666666666667,,78.16666666666667
134,2014-05-04,123.91666666666667,,123.91666666666667
134,2014-05-05,120.54166666666667,,120.54166666666667
134,2014-05-06,76.08333333333333,,76.08333333333333
134,2014-05-07,102.33333333333333,,102.33333333333333
134,2014-05-08,68.04166666666667,,68.04166666666667
134,2014-05-09,22.041666666666668,,22.041666666666668
134,2014-05-10,84.45833333333333,,84.45833333333333
134,2014-05-11,130.29166666666666,,130.29166666666666
134,2014-05-12,116.66666666666667,,116.66666666666667
134,2014-05-13,95.79166666666667,,95.79166666666667
134,2014-05-14,111.16666666666667,,111.16666666666667
134,2014-05-15,14.75,,14.75
134,2014-05-16,22.666666666666668,,22.666666666666668
134,2014-05-17,90.54166666666667,,90.54166666666667
134,2014-05-18,101.95833333333333,,101.95833333333333
134,2014-05-19,101.29166666666667,,101.29166666666667
134,2014-05-20,129.0,,129.0
134,2014-05-21,88.58333333333333,,88.58333333333333
134,2014-05-22,27.416666666666668,,27.416666666666668
134,2014-05-23,46.083333333333336,,46.083333333333336
134,2014-05-24,73.79166666666667,,73.79166666666667
134,2014-05-25,120.04166666666667,,120.04166666666667
134,2014-05-26,89.41666666666667,,89.41666666666667
134,2014-05-27,100.41666666666667,,100.41666666666667
134,2014-05-28,35.0,,35.0
134,2014-05-29,132.66666666666666,,132.66666666666666
134,2014-05-30,97.875,,97.875
134,2014-05-31,119.16666666666667,,119.16666666666667
134,2014-06-01,130.66666666666666,,130.66666666666666
134,2014-06-02,128.41666666666666,,128.41666666666666
134,2014-06-03,94.29166666666667,,94.29166666666667
134,2014-06-04,99.79166666666667,,99.79166666666667
134,2014-06-05,70.04166666666667,,70.04166666666667
134,2014-06-06,91.0,,91.0
134,2014-06-07,124.75,,124.75
134,2014-06-08,119.625,,119.625
134,2014-06-09,26.166666666666668,,26.166666666666668
134,2014-06-10,81.125,,81.125
134,2014-06-11,23.416666666666668,,23.416666666666668
134,2014-06-12,16.416666666666668,,16.416666666666668
134,2014-06-13,25.541666666666668,,25.541666666666668
134,2014-06-14,88.5,,88.5
134,2014-06-15,134.91666666666666,,134.91666666666666
134,2014-06-16,127.45833333333333,,127.45833333333333
134,2014-06-17,114.25,,114.25
134,2014-06-18,125.75,,125.75
134,2014-06-19,95.34954166666667,,95.34954166666667
134,2014-06-20,121.08333333333333,,121.08333333333333
134,2014-06-21,129.0,,129.0
134,2014-06-22,126.16666666666667,,126.16666666666667
134,2014-06-23,116.45833333333333,,116.45833333333333
134,2014-06-24,65.20833333333333,,65.20833333333333
134,2014-06-25,95.20833333333333,,95.20833333333333
134,2014-06-26,104.66666666666667,,104.66666666666667
134,2014-06-27,131.5,,131.5
134,2014-06-28,119.875,,119.875
134,2014-06-29,114.75,,114.75
134,2014-06-30,105.45833333333333,,105.45833333333333
134,2014-07-01,116.25,,116.25
134,2014-07-02,61.583333333333336,,61.583333333333336
134,2014-07-03,80.04166666666667,,80.04166666666667
134,2014-07-04,34.041666666666664,,34.041666666666664
134,2014-07-05,133.58333333333334,,133.58333333333334
134,2014-07-06,129.08333333333334,,129.08333333333334
134,2014-07-07,101.0,,101.0
134,2014-07-08,101.58333333333333,,101.58333333333333
134,2014-07-09,105.41666666666667,,105.41666666666667
134,2014-07-10,119.20833333333333,,119.20833333333333
134,2014-07-11,126.79166666666667,,126.79166666666667
134,2014-07-12,118.58333333333333,,118.58333333333333
134,2014-07-13,40.291666666666664,,40.291666666666664
134,2014-07-14,57.166666666666664,,57.166666666666664
134,2014-07-15,57.5,,57.5
134,2014-07-16,101.29166666666667,,101.29166666666667
134,2014-07-17,100.83333333333333,,100.83333333333333
134,2014-07-18,120.41666666666667,,120.41666666666667
134,2014-07-19,68.125,,68.125
134,2014-07-20,101.91666666666667,,101.91666666666667
134,2014-07-21,94.5,,94.5
134,2014-07-22,113.41666666666667,,113.41666666666667
134,2014-07-23,102.54166666666667,,102.54166666666667
134,2014-07-24,109.70833333333333,,109.70833333333333
134,2014-07-25,116.375,,116.375
134,2014-07-26,98.04166666666667,,98.04166666666667
134,2014-07-27,90.33333333333333,,90.33333333333333
134,2014-07-28,76.16941666666666,,76.16941666666666
134,2014-07-29,92.20833333333333,,92.20833333333333
134,2014-07-30,103.91666666666667,,103.91666666666667
134,2014-07-31,88.66666666666667,,88.66666666666667
134,2014-08-01,88.33333333333333,,88.33333333333333
134,2014-08-02,103.66666666666667,,103.66666666666667
134,2014-08-03,92.125,,92.125
134,2014-08-04,102.33333333333333,,102.33333333333333
134,2014-08-05,103.79166666666667,,103.79166666666667
134,2014-08-06,88.0,,88.0
134,2014-08-07,94.70833333333333,,94.70833333333333
134,2014-08-08,106.91666666666667,,106.91666666666667
134,2014-08-09,110.54166666666667,,110.54166666666667
134,2014-08-10,112.5,,112.5
134,2014-08-11,106.54166666666667,,106.54166666666667
134,2014-08-12,38.875,,38.875
134,2014-08-13,49.125,,49.125
134,2014-08-14,112.70833333333333,,112.70833333333333
134,2014-08-15,78.41666666666667,,78.41666666666667
134,2014-08-16,97.45833333333333,,97.45833333333333
134,2014-08-17,85.04166666666667,,85.04166666666667
134,2014-08-18,109.95833333333333,,109.95833333333333
134,2014-08-19,116.16666666666667,,116.16666666666667
134,2014-08-20,98.79166666666667,,98.79166666666667
134,2014-08-21,47.958333333333336,,47.958333333333336
134,2014-08-22,18.416666666666668,,18.416666666666668
134,2014-08-23,63.25,,63.25
134,2014-08-24,95.91666666666667,,95.91666666666667
134,2014-08-25,105.0,,105.0
134,2014-08-26,107.875,,107.875
134,2014-08-27,87.625,,87.625
134,2014-08-28,87.20833333333333,,87.20833333333333
134,2014-08-29,112.79166666666667,,112.79166666666667
134,2014-08-30,89.54166666666667,,89.54166666666667
134,2014-08-31,43.5,,43.5
134,2014-09-01,91.08333333333333,,91.08333333333333
134,2014-09-02,85.625,,85.625
134,2014-09-03,99.45833333333333,,99.45833333333333
134,2014-09-04,104.875,,104.875
134,2014-09-05,94.58333333333333,,94.58333333333333
134,2014-09-06,82.0,,82.0
134,2014-09-07,104.125,,104.125
134,2014-09-08,89.95833333333333,,89.95833333333333
134,2014-09-09,73.66666666666667,,73.66666666666667
134,2014-09-10,96.91666666666667,,96.91666666666667
134,2014-09-11,23.458333333333332,,23.458333333333332
134,2014-09-12,109.08333333333333,,109.08333333333333
134,2014-09-13,24.083333333333332,,24.083333333333332
134,2014-09-14,107.41666666666667,,107.41666666666667
134,2014-09-15,104.70833333333333,,104.70833333333333
134,2014-09-16,60.875,,60.875
134,2014-09-17,76.375,,76.375
134,2014-09-18,86.16666666666667,,86.16666666666667
134,2014-09-19,106.0,,106.0
134,2014-09-20,49.875,,49.875
134,2014-09-21,69.83333333333333,,69.83333333333333
134,2014-09-22,103.20833333333333,,103.20833333333333
134,2014-09-23,99.29166666666667,,99.29166666666667
134,2014-09-24,81.5,,81.5
134,2014-09-25,32.0,,32.0
134,2014-09-26,97.91666666666667,,97.91666666666667
134,2014-09-27,92.0,,92.0
134,2014-09-28,83.41666666666667,,83.41666666666667
134,2014-09-29,44.541666666666664,,44.541666666666664
134,2014-09-30,40.75,,40.75
134,2014-10-01,22.833333333333332,,22.833333333333332
134,2014-10-02,52.708333333333336,,52.708333333333336
134,2014-10-03,91.75,,91.75
134,2014-10-04,9.125,,9.125
134,2014-10-05,96.125,,96.125
134,2014-10-06,69.25,,69.25
134,2014-10-07,59.916666666666664,,59.916666666666664
134,2014-10-08,69.39999999999999,,69.39999999999999
134,2014-10-09,82.91666666666667,,82.91666666666667
134,2014-10-10,81.75,,81.75
134,2014-10-11,46.416666666666664,,46.416666666666664
134,2014-10-12,89.25,,89.25
134,2014-10-13,23.416666666666668,,23.416666666666668
134,2014-10-14,35.333333333333336,,35.333333333333336
134,2014-10-15,34.583333333333336,,34.583333333333336
134,2014-10-16,25.5,,25.5
134,2014-10-17,75.125,,75.125
134,2014-10-18,23.333333333333332,,23.333333333333332
134,2014-10-19,73.54166666666667,,73.54166666666667
134,2014-10-20,33.875,,33.875
134,2014-10-21,10.041666666666666,,10.041666666666666
134,2014-10-22,10.958333333333334,,10.958333333333334
134,2014-10-23,18.916666666666668,,18.916666666666668
134,2014-10-24,17.458333333333332,,17.458333333333332
134,2014-10-25,68.20833333333333,,68.20833333333333
134,2014-10-26,34.583333333333336,,34.583333333333336
134,2014-10-27,72.0,,72.0
134,2014-10-28,54.208333333333336,,54.208333333333336
134,2014-10-29,11.208333333333334,,11.208333333333334
134,2014-10-30,39.791666666666664,,39.791666666666664
134,2014-10-31,57.75,,57.75
134,2014-11-01,17.375,,17.375
134,2014-11-02,65.33333333333333,,65.33333333333333
134,2014-11-03,67.75,,67.75
134,2014-11-04,57.875,,57.875
134,2014-11-05,25.166666666666668,,25.166666666666668
134,2014-11-06,8.375,,8.375
134,2014-11-07,34.041666666666664,,34.041666666666664
134,2014-11-08,65.04166666666667,,65.04166666666667
134,2014-11-09,45.916666666666664,,45.916666666666664
134,2014-11-10,49.541666666666664,,49.541666666666664
134,2014-11-11,24.796333333333333,,24.796333333333333
134,2014-11-12,22.412000000000003,,22.412000000000003
134,2014-11-13,43.068333333333335,,43.068333333333335
134,2014-11-14,43.49666666666667,,43.49666666666667
134,2014-11-15,67.66666666666667,,67.66666666666667
134,2014-11-16,27.625,,27.625
134,2014-11-17,5.333333333333333,,5.333333333333333
134,2014-11-18,64.55991666666667,,64.55991666666667
134,2014-11-19,65.83333333333333,,65.83333333333333
134,2014-11-20,59.0,,59.0
134,2014-11-21,40.5,,40.5
134,2014-11-22,49.083333333333336,,49.083333333333336
134,2014-11-23,45.47958333333333,,45.47958333333333
134,2014-11-24,21.026125,,21.026125
134,2014-11-25,26.666666666666668,,26.666666666666668
134,2014-11-26,0.2916666666666667,,0.2916666666666667
134,2014-11-27,0.0,,0.0
134,2014-11-28,0.125,,0.125
134,2014-11-29,0.0,,0.0
134,2014-11-30,0.041666666666666664,,0.041666666666666664
134,2014-12-01,3.5,,3.5
134,2014-12-02,31.5,,31.5
134,2014-12-03,11.950541666666666,,11.950541666666666
134,2014-12-04,33.083333333333336,,33.083333333333336
134,2014-12-05,17.791666666666668,,17.791666666666668
134,2014-12-06,5.541666666666667,,5.541666666666667
134,2014-12-07,55.083333333333336,,55.083333333333336
134,2014-12-08,28.333333333333332,,28.333333333333332
134,2014-12-09,2.9166666666666665,,2.9166666666666665
134,2014-12-10,12.041666666666666,,12.041666666666666
134,2014-12-11,10.291666666666666,,10.291666666666666
134,2014-12-12,21.96966666666667,,21.96966666666667
134,2014-12-13,50.625,,50.625
134,2014-12-14,23.75,,23.75
134,2014-12-15,50.833333333333336,,50.833333333333336
134,2014-12-16,7.25,,7.25
134,2014-12-17,11.458333333333334,,11.458333333333334
134,2014-12-18,42.791666666666664,,42.791666666666664
134,2014-12-19,18.333333333333332,,18.333333333333332
134,2014-12-20,11.083333333333334,,11.083333333333334
134,2014-12-21,11.125,,11.125
134,2014-12-22,9.666666666666666,,9.666666666666666
134,2014-12-23,5.666666666666667,,5.666666666666667
134,2014-12-24,2.7916666666666665,,2.7916666666666665
134,2014-12-25,17.875,,17.875
134,2014-12-26,50.583333333333336,,50.583333333333336
134,2014-12-27,43.083333333333336,,43.083333333333336
134,2014-12-28,10.25,,10.25
134,2014-12-29,22.833333333333332,,22.833333333333332
134,2014-12-30,46.5,,46.5
134,2014-12-31,51.875,,51.875
134,2015-01-01,55.125,,55.125
134,2015-01-02,21.958333333333332,,21.958333333333332
134,2015-01-03,8.5,,8.5
134,2015-01-04,0.4166666666666667,,0.4166666666666667
134,2015-01-05,48.416666666666664,,48.416666666666664
134,2015-01-06,24.125,,24.125
134,2015-01-07,45.541666666666664,,45.541666666666664
134,2015-01-08,59.958333333333336,,59.958333333333336
134,2015-01-09,13.25,,13.25
134,2015-01-10,54.125,,54.125
134,2015-01-11,12.916666666666666,,12.916666666666666
134,2015-01-12,1.1666666666666667,,1.1666666666666667
134,2015-01-13,20.208333333333332,,20.208333333333332
134,2015-01-14,11.833333333333334,,11.833333333333334
134,2015-01-15,36.833333333333336,,36.833333333333336
134,2015-01-16,41.25,,41.25
134,2015-01-17,62.0,,62.0
134,2015-01-18,5.041666666666667,,5.041666666666667
134,2015-01-19,19.875,,19.875
134,2015-01-20,55.0,,55.0
134,2015-01-21,35.25,,35.25
134,2015-01-22,48.833333333333336,,48.833333333333336
134,2015-01-23,65.45833333333333,,65.45833333333333
134,2015-01-24,0.25,,0.25
134,2015-01-25,4.083333333333333,,4.083333333333333
134,2015-01-26,2.3333333333333335,,2.3333333333333335
134,2015-01-27,1.9166666666666667,,1.9166666666666667
134,2015-01-28,6.291666666666667,,6.291666666666667
134,2015-01-29,9.625,,9.625
134,2015-01-30,0.5,,0.5
134,2015-01-31,2.2916666666666665,,2.2916666666666665
134,2015-02-01,1.9166666666666667,,1.9166666666666667
134,2015-02-02,0.0,,0.0
134,2015-02-03,0.0,,0.0
134,2015-02-04,0.0,,0.0
134,2015-02-05,0.0,,0.0
134,2015-02-06,0.4583333333333333,,0.4583333333333333
134,2015-02-07,0.08333333333333333,,0.08333333333333333
134,2015-02-08,0.0,,0.0
134,2015-02-09,0.0,,0.0
134,2015-02-10,0.0,,0.0
134,2015-02-11,0.0,,0.0
134,2015-02-12,0.0,,0.0
134,2015-02-13,0.0,,0.0
134,2015-02-14,0.0,,0.0
134,2015-02-15,0.08333333333333333,,0.08333333333333333
134,2015-02-16,0.3333333333333333,,0.3333333333333333
134,2015-02-17,0.7083333333333334,,0.7083333333333334
134,2015-02-18,1.75,,1.75
134,2015-02-19,1.4583333333333333,,1.4583333333333333
134,2015-02-20,3.9166666666666665,,3.9166666666666665
134,2015-02-21,1.2083333333333333,,1.2083333333333333
134,2015-02-22,0.08333333333333333,,0.08333333333333333
134,2015-02-23,0.4583333333333333,,0.4583333333333333
134,2015-02-24,0.5416666666666666,,0.5416666666666666
134,2015-02-25,1.4166666666666667,,1.4166666666666667
134,2015-02-26,1.1666666666666667,,1.1666666666666667
134,2015-02-27,3.9583333333333335,,3.9583333333333335
134,2015-02-28,4.541666666666667,,4.541666666666667
134,2015-03-01,0.7916666666666666,,0.7916666666666666
134,2015-03-02,1.375,,1.375
134,2015-03-03,1.875,,1.875
134,2015-03-04,0.0,,0.0
134,2015-03-05,0.0,,0.0
134,2015-03-06,1.25,,1.25
134,2015-03-07,2.375,,2.375
134,2015-03-08,3.4166666666666665,,3.4166666666666665
134,2015-03-09,7.666666666666667,,7.666666666666667
134,2015-03-10,6.583333333333333,,6.583333333333333
134,2015-03-11,31.75,,31.75